Weather in Philadelphia

United States     32°46′16″N   89°06′59″W
temp.,
°C
wind,
m/s
gust,
m/s
humid.,
%
clouds,
%
prec.,
mm/h
press.,
hPa
HPBL,
m
16 may, sun
sun1601:00+14sse2682100 0.0 1021121
04:00+15s2799100 0.0 1021174
07:00+15s279064 0.0 1023192
10:00+23s35543 0.0 1023775
13:00+26s34417 0.0 10221797
16:00+27sse35435 0.0 10191814
19:00+22se237047 0.0 101853
22:00+18sse31273100 0.0 1020313
17 may, mon
mon1701:00+17sse31186100 0.0 1019321
04:00+15sse21092100 0.0 1019222
07:00+15se3108385 0.0 1019274
10:00+19sse3969100 0.0 1021591
13:00+18sse2782100 0.1 1020277
16:00+20s2881100 0.0 1018417
19:00+20s2782100 0.0 1018330
22:00+18s2119099 0.0 1018390
18 may, tue
tue1801:00+18sse3129095 0.0 1018530
04:00+17s2109996 0.1 1018300
07:00+18se3998100 0.3 1019344
10:00+23sse477165 0.0 1020759
13:00+28sse4547100 0.0 10181743
16:00+28se4649100 0.0 10162210
19:00+24se51266100 0.0 1017582
22:00+22sse41172100 0.0 1019545
19 may, wed
wed1901:00+19sse4148595 0.0 1018538
04:00+18se31281100 0.0 1018439
07:00+18se4138643 0.0 1020547
10:00+24se510625 0.0 10211148
13:00+28se584854 0.0 10202302
16:00+26sse376494 0.0 1019718
19:00+23se23818 0.1 101990
22:00+20se26870 0.0 1020108
20 may, thu
thu2001:00+18se26843 0.0 1020111
04:00+17ese212863 0.0 1020287
07:00+17ese311853 0.0 1022358
10:00+24ese58640 0.0 1023926
13:00+29ese57488 0.0 10222026
16:00+26ese586197 0.0 10211115
19:00+24ese38705 0.0 1022430
22:00+20ese22835 0.0 102334